Date String (YYYY-MM-DD hh:mm:ss) UTC,Instrument flags,Ambient pressure (hPa),Sample flow (lpm),Bypass flow (lpm),Sample temperature (°C),Ambient temperature (°C),ASC tube jacket temperature (°C),LED temperature (°C),Box temperature (°C),Sample RH (%),Span deviation,Mass concentration (μg/m³),Mass concentration (μg/m³),Mass concentration (μg/m³)
DateTimeUTC,F1_M11,P_M11,Q1_M11,Q2_M11,T1_M11,T2_M11,T3_M11,T4_M11,T5_M11,U1_M11,ZSPAN_M11,X2_M11,X0_M11,X1_M11
2023-02-19 12:00:00,,0819.3,5.00,0.00,22.0,20.7,00.0,31.0,23.6,07.2,0000.0,0002.90,0006.90,0001.87
2023-02-19 12:01:00,,0819.4,5.01,0.00,22.1,21.9,00.0,31.0,24.0,07.2,0000.0,0002.94,0006.25,0001.88
2023-02-19 12:02:00,,0819.5,4.97,0.00,22.3,22.9,00.0,31.0,24.2,07.2,0000.0,0002.94,0006.14,0001.90
2023-02-19 12:03:00,,0819.5,5.02,0.00,22.3,22.6,00.0,31.1,24.2,07.2,0000.0,0002.88,0006.02,0001.88
2023-02-19 12:04:00,,0819.4,4.99,0.00,22.3,21.9,00.0,31.1,24.1,07.2,0000.0,0002.86,0006.08,0001.87
2023-02-19 12:05:00,,0819.5,5.04,0.00,22.3,21.4,00.0,31.1,23.9,07.1,0000.0,0002.85,0006.65,0001.87
2023-02-19 12:06:00,,0819.5,5.00,0.00,22.2,20.9,00.0,31.1,23.7,07.1,0000.0,0002.87,0006.88,0001.84
2023-02-19 12:07:00,,0819.5,4.99,0.00,22.1,20.7,00.0,31.1,23.6,07.2,0000.0,0002.88,0007.29,0001.84
2023-02-19 12:08:00,,0819.5,5.00,0.00,22.1,20.4,00.0,31.1,23.6,07.2,0000.0,0002.93,0007.42,0001.83
2023-02-19 12:09:00,,0819.5,5.00,0.00,22.0,20.3,00.0,31.1,23.5,07.3,0000.0,0002.99,0007.36,0001.82
2023-02-19 12:10:00,,0819.5,5.00,0.00,22.0,20.1,00.0,31.1,23.5,07.2,0000.0,0002.96,0006.75,0001.79
2023-02-19 12:11:00,,0819.5,5.01,0.00,21.9,20.0,00.0,31.1,23.4,07.2,0000.0,0002.93,0006.64,0001.76
2023-02-19 12:12:00,,0819.6,5.01,0.00,22.0,20.9,00.0,31.0,23.6,07.2,0000.0,0002.90,0006.68,0001.74
2023-02-19 12:13:00,,0819.7,5.04,0.00,22.1,22.2,00.0,30.9,24.0,07.2,0000.0,0002.92,0006.84,0001.71
2023-02-19 12:14:00,,0819.7,5.00,0.00,22.3,23.2,00.0,30.9,24.3,07.1,0000.0,0002.91,0006.87,0001.70
2023-02-19 12:15:00,,0819.8,4.94,0.00,22.4,23.2,00.0,31.0,24.4,07.1,0000.0,0002.88,0006.70,0001.69
2023-02-19 12:16:00,,0819.7,5.01,0.00,22.4,22.4,00.0,31.1,24.2,07.0,0000.0,0002.86,0006.22,0001.67
2023-02-19 12:17:00,,0819.7,4.98,0.00,22.3,21.8,00.0,31.1,24.0,07.1,0000.0,0002.87,0006.16,0001.67
2023-02-19 12:18:00,,0819.8,5.00,0.00,22.3,21.3,00.0,31.1,23.9,07.1,0000.0,0002.84,0005.88,0001.67
2023-02-19 12:19:00,,0819.8,5.00,0.00,22.2,20.9,00.0,31.1,23.8,07.2,0000.0,0002.75,0005.57,0001.66
2023-02-19 12:20:00,,0819.8,5.00,0.00,22.2,20.6,00.0,31.1,23.6,07.3,0000.0,0002.71,0005.47,0001.67
2023-02-19 12:21:00,,0819.9,5.00,0.00,22.1,20.4,00.0,31.1,23.6,07.4,0000.0,0002.68,0005.32,0001.68
2023-02-19 12:22:00,,0820.0,5.01,0.00,22.1,20.2,00.0,31.1,23.6,07.5,0000.0,0002.68,0005.38,0001.68
2023-02-19 12:23:00,,0819.9,5.00,0.00,22.0,20.1,00.0,31.1,23.5,07.6,0000.0,0002.67,0005.35,0001.69
2023-02-19 12:24:00,,0819.9,5.00,0.00,22.0,19.9,00.0,31.1,23.4,07.7,0000.0,0002.62,0005.31,0001.70
2023-02-19 12:25:00,,0819.9,5.00,0.00,22.0,20.4,00.0,31.0,23.5,07.7,0000.0,0002.65,0005.30,0001.70
2023-02-19 12:26:00,,0819.9,5.00,0.00,22.1,21.9,00.0,30.9,23.9,07.7,0000.0,0002.72,0005.49,0001.70
2023-02-19 12:27:00,,0819.9,4.98,0.00,22.2,23.1,00.0,30.9,24.2,07.5,0000.0,0002.75,0005.53,0001.71
2023-02-19 12:28:00,,0820.0,4.95,0.00,22.4,23.5,00.0,31.0,24.4,07.5,0000.0,0002.75,0005.52,0001.72
2023-02-19 12:29:00,,0820.0,5.00,0.00,22.4,22.8,00.0,31.1,24.3,07.6,0000.0,0002.73,0005.29,0001.72
2023-02-19 12:30:00,,0820.0,5.00,0.00,22.4,22.0,00.0,31.1,24.2,07.6,0000.0,0002.73,0005.28,0001.72
2023-02-19 12:31:00,,0820.1,4.99,0.00,22.3,21.5,00.0,31.1,24.0,07.6,0000.0,0002.73,0005.24,0001.73
2023-02-19 12:32:00,,0820.2,5.00,0.00,22.3,21.0,00.0,31.2,23.9,07.5,0000.0,0002.73,0005.30,0001.73
2023-02-19 12:33:00,,0820.1,5.00,0.00,22.2,20.7,00.0,31.2,23.7,07.7,0000.0,0002.69,0005.21,0001.74
2023-02-19 12:34:00,,0820.0,4.99,0.00,22.2,20.5,00.0,31.2,23.6,07.7,0000.0,0002.69,0005.13,0001.76
2023-02-19 12:35:00,,0820.0,5.00,0.00,22.1,20.3,00.0,31.1,23.6,07.7,0000.0,0002.77,0005.09,0001.77
2023-02-19 12:36:00,,0820.1,5.00,0.00,22.1,20.1,00.0,31.1,23.5,07.7,0000.0,0002.78,0006.66,0001.77
2023-02-19 12:37:00,,0820.2,4.99,0.00,22.0,20.0,00.0,31.1,23.5,07.7,0000.0,0002.81,0007.39,0001.79
2023-02-19 12:38:00,,0820.2,5.00,0.00,22.0,19.9,00.0,31.1,23.4,08.0,0000.0,0002.85,0007.66,0001.79
2023-02-19 12:39:00,,0820.2,5.01,0.00,21.9,20.0,00.0,31.0,23.4,08.2,0000.0,0002.83,0007.65,0001.79
2023-02-19 12:40:00,,0820.2,5.04,0.00,22.0,21.2,00.0,30.9,23.7,08.2,0000.0,0002.78,0007.58,0001.80
2023-02-19 12:41:00,,0820.2,4.93,0.00,22.1,22.5,00.0,30.9,24.1,08.1,0000.0,0002.82,0007.77,0001.82
2023-02-19 12:42:00,,0820.2,4.97,0.00,22.3,23.4,00.0,30.9,24.3,07.9,0000.0,0002.87,0007.86,0001.84
2023-02-19 12:43:00,,0820.2,5.09,0.00,22.4,23.1,00.0,31.0,24.3,07.9,0000.0,0002.88,0007.88,0001.84
2023-02-19 12:44:00,,0820.2,5.00,0.00,22.4,22.3,00.0,31.1,24.1,08.0,0000.0,0002.91,0008.63,0001.86
2023-02-19 12:45:00,,0820.2,5.02,0.00,22.3,21.6,00.0,31.1,24.0,08.2,0000.0,0002.95,0008.71,0001.86
2023-02-19 12:46:00,,0820.2,5.01,0.00,22.3,21.2,00.0,31.1,23.9,08.3,0000.0,0002.93,0008.68,0001.86
2023-02-19 12:47:00,,0820.3,4.99,0.00,22.2,20.9,00.0,31.1,23.8,08.3,0000.0,0003.00,0007.92,0001.86
2023-02-19 12:48:00,,0820.3,5.01,0.00,22.2,20.6,00.0,31.1,23.7,08.3,0000.0,0002.96,0007.50,0001.86
2023-02-19 12:49:00,,0820.3,5.00,0.00,22.1,20.4,00.0,31.1,23.7,08.4,0000.0,0002.95,0007.35,0001.86
2023-02-19 12:50:00,,0820.4,4.99,0.00,22.1,20.2,00.0,31.1,23.6,08.6,0000.0,0002.93,0007.26,0001.87
2023-02-19 12:51:00,,0820.5,5.00,0.00,22.0,20.1,00.0,31.1,23.5,08.6,0000.0,0002.96,0007.29,0001.87
2023-02-19 12:52:00,,0820.6,5.00,0.00,22.0,20.0,00.0,31.0,23.5,08.9,0000.0,0002.98,0007.07,0001.87
2023-02-19 12:53:00,,0820.6,5.00,0.00,22.0,20.2,00.0,31.0,23.5,08.9,0000.0,0002.97,0007.15,0001.86
2023-02-19 12:54:00,,0820.6,5.03,0.00,22.0,21.5,00.0,30.9,23.8,08.8,0000.0,0002.95,0007.09,0001.85
2023-02-19 12:55:00,,0820.6,5.00,0.00,22.2,22.6,00.0,30.9,24.1,08.7,0000.0,0002.97,0006.29,0001.83
2023-02-19 12:56:00,,0820.6,5.00,0.00,22.3,22.7,00.0,31.0,24.2,08.8,0000.0,0002.94,0006.37,0001.81
2023-02-19 12:57:00,,0820.6,5.03,0.00,22.3,22.1,00.0,31.0,24.1,08.8,0000.0,0002.88,0006.21,0001.80
2023-02-19 12:58:00,,0820.6,5.03,0.00,22.3,21.5,00.0,31.1,24.0,08.8,0000.0,0002.81,0006.04,0001.80
2023-02-19 12:59:00,,0820.6,5.00,0.00,22.2,21.1,00.0,31.1,23.8,09.0,0000.0,0002.78,0005.94,0001.77
